map of IGU home
IGU - Airport
Location
City:  Foz do Iguaz˙, Paranß, Brazil
Near (Alt.):Iguaz˙ Falls, Iguašu Falls
Name:Cataratas International Airport
ICAO:SBFI
IATA:IGU

Details
Type:Airport (Aerodrome, Airfield)
Use:Public/Civil, International (customs port of entry)
Latitude:25░35'46"S (-25.596149)
Longitude:54░29'14"W (-54.487205)
Datum:WGS 1984
Elevation:787 ft (240 m)
Variation:16.21░W (WMM2015 magnetic declination)
-0.17░ annual change
Runways:1
Longest:7201 × 148 ft (2195 × 45 m), paved

Time
Time Zone:UTC-3 (DST-2)
Local Time:

Weather
METAR:SBFI 241000Z 12006KT CAVOK 16/15 Q1021
TAF:SBFI 240915Z 2412/2512 08006KT CAVOK TX28/2418Z TN16/2509Z
BECMG 2414/2416 01010KT
BECMG 2422/2424 07005KT
RMK PDW

Related Locations
Nearby:
Farthest:SHI: 12374 mi / 19914 km
Shimojishima (Shimojijima, Miyakojima) [Shimojishima Airport], Shimoji Island, 47, JP

Find:

   beyond  
but within

Other Information
Maps:
NOTAMs:
Links:
Sources:

  
flag of Brazil
flag of Paranß
  

Sectional Chart

Flight Planning
at skyvector.com

Satellite Image

Google Maps Satellite view

 

Copyright © 2004-2017 Karl L. Swartz. All rights reserved.
The Great Circle Mapper name and logo are trademarks of the Great Circle Mapper.
All other trademarks mentioned herein belong to their respective owners.
Please see credits for attibutions and further copyright information.

  Follow gcmap on Facebook Follow gcmap on Twitter Follow gcmap on Google+ GCmap on LinkedIn

hCard Microformat

Geo Microformat